Regional Weather Roundup
Issued by NWS

Home | Current Version | Previous Version | Graphics & Text | Print | Product List | Glossary On
Versions: 1 2 3 4 5 6 7 8 9 10 11 12 13 14 15 16 17 18 19 20 21 22 23 24 25 26 27 28 29 30 31 32 33 34 35 36 37 38 39 40 41 42 43 44 45 46 47 48 49 50
419
ASUS43 KFSD 052202
RWRSD

WEATHER ROUNDUP FOR SOUTH DAKOTA
NATIONAL WEATHER SERVICE SIOUX FALLS SD
400 PM CST MON DEC 05 2016

NOTE: "FAIR" INDICATES FEW OR NO CLOUDS BELOW 12,000 FEET WITH NO
SIGNIFICANT WEATHER AND/OR OBSTRUCTIONS TO VISIBILITY.


SDZ001>005-009-010-012>017-052300-
NORTHWEST AND NORTH CENTRAL SOUTH DAKOTA

CITY           SKY/WX    TMP DP  RH WIND       PRES   REMARKS
BUFFALO          N/A     20  10  65 NW39G58   29.70R WCI  -1
FAITH            N/A     22  19  89 NW35G43   29.70R WCI   3
MOBRIDGE       SNOW      26  21  81 NW32G43   29.60R VSB 1/2 WCI   9
$$

SDZ012>016-024>037-041>051-057-063-072>074-052300-
SOUTHWEST AND SOUTH CENTRAL SOUTH DAKOTA

CITY           SKY/WX    TMP DP  RH WIND       PRES   REMARKS
RAPID CTY ARPT MOCLDY    25  11  55 NW31G46   29.75R WCI   8
PIERRE         SNOW      27  23  85 NW26G44   29.68R VSB 1/4 WCI  12
CUSTER         SUNNY     18   3  52 W10       29.64R WCI   6
ELLSWORTH AFB  PTCLDY    25  11  57 NW37G48   29.72R WCI   6
PINE RIDGE     LGT SNOW  23  21  92 W8        29.79R VSB 3/4 WCI  14
SPEARFISH      FLURRIES  19  12  73 W21G32    29.77R WCI   3
WINNER         CLOUDY    31  24  75 NW28G38   29.68R WCI  17
$$

SDZ004>011-016>023-039-040-052300-
NORTHEAST SOUTH DAKOTA

CITY           SKY/WX    TMP DP  RH WIND       PRES   REMARKS
ABERDEEN       CLOUDY    37  29  72 W10       29.49R
WATERTOWN      PTCLDY    38  32  79 SW12      29.45R
SISSETON         N/A     35  32  88 S7        29.48S WCI  29
$$

SDZ017-020-022-023-036>040-048>070-052300-
SOUTHEAST SOUTH DAKOTA

CITY           SKY/WX    TMP DP  RH WIND       PRES   REMARKS
SIOUX FALLS    MOCLDY    44  34  67 SW13G22   29.55R
HURON          CLOUDY    36  30  79 W26G35    29.55R
MITCHELL       MOCLDY    38  29  70 W21G28    29.61R
YANKTON        CLOUDY    45  28  53 W15       29.59R
$$

ABBREVIATIONS USED IN REMARKS
   TC - TEMPERATURE IN CELSIUS
  WCI - WIND CHILL INDEX
   HX - HEAT INDEX
  VSB - VISIBILITY





USA.gov is the U.S. government's official web portal to all federal, state and local government web resources and services.